Location: Salisbury
(35.6710°N, 80.4740°W)
Time: 10:38:45
(UTC-05:00)

N. Korean satellite - Visible Passes

Search period start: 20 February 2018 00:00
Search period end: 02 March 2018 00:00
Orbit: 459 x 514 km, 97.2° (Epoch: 20 February)

Date Brightness Start Highest point End Pass type
(mag) Time Alt. Az. Time Alt. Az. Time Alt. Az.
20 Feb 9.9 19:11:24 10° SW 19:13:37 16° W 19:15:53 10° NW visible
21 Feb 8.5 18:46:38 10° SSW 18:49:47 34° W 18:52:58 10° NNW visible
22 Feb 9.7 06:16:38 10° NE 06:19:31 21° E 06:22:25 10° SSE visible
23 Feb 10.7 05:54:50 10° E 05:55:38 11° E 05:56:27 10° ESE visible
24 Feb 9.9 19:09:47 10° SW 19:12:06 17° W 19:14:27 10° NW visible
25 Feb 8.4 18:45:03 10° SSW 18:48:14 35° W 18:51:29 10° NNW visible
26 Feb 9.8 06:15:09 10° NE 06:18:01 21° E 06:20:53 10° SE visible
27 Feb 10.8 05:53:32 10° E 05:54:07 10° E 05:54:41 10° E visible
28 Feb 9.8 19:08:06 10° SW 19:10:31 18° W 19:12:59 10° NW visible
01 Mar 8.3 18:43:25 10° SSW 18:46:39 37° W 18:49:58 10° NNW visible
